Location: Unspecified
(57.6483°N, 3.3184°W)
Time: 19:34:17
(UTC+01:00)

N. Korean satellite - Pass Details

Date: 06 March 2021
Orbit: 452 x 499 km, 97.2° (Epoch: 20 April)

Event Time Altitude Azimuth Distance (km) Brightness Sun altitude
Rises 05:33:15 0° 18° (NNE) 2,528 10.6 -11.6°
Reaches altitude 10° 05:35:21 10° 24° (NNE) 1,653 9.7 -11.3°
Maximum altitude 05:38:48 49° 100° (E) 632 7.6 -10.8°
Drops below altitude 10° 05:42:17 10° 176° (S) 1,667 9.3 -10.3°
Sets 05:44:25 0° 182° (S) 2,551 10.1 -10.1°
